This is the latest recevied weather packets stored in our database for station/object WA3NOA-2. If no packets are shown the sender has not sent any weather packets the latest 10 day(s).
| Time | Temp. | Humidity | Pressure | Rain* | Wind** | Luminosity | Snow |
|---|---|---|---|---|---|---|---|
| 1777336027 | 14.44° C | 64% | 1017.3 hPa | 0 mm | - | - | - |
| 1777335727 | 15° C | 64% | 1017.3 hPa | 0 mm | - | - | - |
| 1777335427 | 15° C | 63% | 1017.3 hPa | 0 mm | - | - | - |
| 1777335127 | 15° C | 63% | 1017.3 hPa | 0 mm | - | - | - |
| 1777334827 | 15.56° C | 62% | 1017.3 hPa | 0 mm | - | - | - |
| 1777334527 | 15.56° C | 61% | 1017.3 hPa | 0 mm | - | - | - |
| 1777334227 | 16.11° C | 60% | 1017 hPa | 0 mm | - | - | - |
| 1777333927 | 16.11° C | 59% | 1016.8 hPa | 0 mm | - | - | - |
| 1777333627 | 16.67° C | 58% | 1016.9 hPa | 0 mm | - | - | - |
| 1777333327 | 16.67° C | 56% | 1016.8 hPa | 0 mm | - | - | - |
| 1777333027 | 17.22° C | 53% | 1017 hPa | 0 mm | - | - | - |
| 1777332727 | 17.78° C | 48% | 1016.7 hPa | 0 mm | - | - | - |
| 1777332427 | 17.78° C | 47% | 1016.5 hPa | 0 mm | - | - | - |
| 1777332127 | 17.78° C | 47% | 1016.3 hPa | 0 mm | - | - | - |
| 1777331827 | 18.33° C | 46% | 1016.3 hPa | 0 mm | - | - | - |
| 1777331527 | 18.33° C | 46% | 1016.4 hPa | 0 mm | - | - | - |
| 1777331227 | 18.33° C | 46% | 1016.3 hPa | 0 mm | - | - | - |
| 1777330927 | 18.33° C | 46% | 1016.1 hPa | 0 mm | - | - | - |
| 1777330627 | 18.33° C | 45% | 1016.1 hPa | 0 mm | - | - | - |
| 1777330327 | 18.33° C | 46% | 1016.2 hPa | 0 mm | - | - | - |
| 1777330027 | 18.33° C | 45% | 1016.1 hPa | 0 mm | - | - | - |
| 1777329727 | 18.33° C | 45% | 1016.1 hPa | 0 mm | - | - | - |
| 1777329427 | 18.33° C | 44% | 1016.1 hPa | 0 mm | - | - | - |
| 1777329127 | 18.89° C | 45% | 1016.1 hPa | 0 mm | - | - | - |
| 1777328827 | 18.89° C | 44% | 1016.2 hPa | 0 mm | - | - | - |
* Rain latest hour (hover to see other rain measurements)
** Current wind speed in m/s (hover to see current wind gust speed)